COSMOS 2251 DEB, 35717

Orbit data source: Space-Track

COSMOS 2251 DEB, 35717 is space debris in LEO originally from a launch on Wed, 16 Jun 1993 UTC launched from the Plesetsk Missile And Space Complex (PKMTR). The debris from Iridium 33, an American commercial communications satellite, has been tracked extensively since its accidental collision with the defunct Russian satellite Cosmos 2251 in 2009. This event, occurring at high speed in low Earth orbit (LEO), generated thousands of pieces of space debris, significantly increasing the risk of further collisions. The Iridium 33 debris cloud has impacted space traffic management and orbital debris mitigation strategies, making it a subject of ongoing study in space situational awareness.

Loading next visibility...
Identifier
35717, 1993-036AQN
Orbit
LEO
Country
Flag of CISCIS
Related business
Manufacturer
Unknown
Mission
Spacecraft
Bus & Motor
Unknown
Mass
Unknown
Launch date (UTC)
1993-06-16 (33 years ago)
Launch vehicle
Unknown
Launch site
Plesetsk Missile And Space Complex (PKMTR)
Object type
Payload
Rocket body
Debris
Shape & HBR
Unknown shape, 0.1 m
Radar Cross Section
Small (<0.1 m²)

Expand to show TLE details & history
Last TLE update: 2 days ago

TLE from 2 days ago
0 COSMOS 2251 DEB
1 35717U 93036AQN 26032.53157330  .00003394  00000-0  10687-2 0  9997
2 35717  74.1606 124.5468 0079783 328.3783  31.2590 14.38941918748307
Epoch: 2026-02-01T12:45Z
TLE epoch observation values (Epoch: 2026-02-01T12:45:27.933Z)
Latitude
-0.00005°
Longitude
161.44053°
Altitude
716.038 km
Speed
7.523 km/s
True Right ascension
08h 18m 11s
True Declination
0° 00' 00"
Sunlit
Object was in full shadow at epoch
Visualization orbit readout
Latitude
Unknown
Longitude
Unknown
Altitude
Unknown
Speed
Unknown
Apparent Right ascension
Unknown
Apparent Declination
Unknown
Sunlit
N/A
Visualization observer readout
Local Sidereal Time
05:52:46
Azimuth
Unknown
Elevation
Unknown
Doppler factor
Unknown
Orbital elements
Apogee altitude
816.553 km
Perigee altitude
702.659 km
Semi-major axis
7,137.743 km
Eccentricity
0.00798
Inclination
74.1606°
RAAN
124.5468°
Arg. of periapsis
328.3783°
True anomaly
31.73748°
Mean anomaly
31.259°
Eccentric anomaly
31.49783°
Mean motion
3.59917 °/min
Orbital period
100.02 mins
BSTAR
0.0010687
Loading maneuver chart data...
Computing Atmospheric mass density...

Documentation

Showing up to 5 results
|